Location: Byszew
(52.1813°N, 19.2693°E)
Time: 07:40:48
(UTC+00:00)

NOAA 18 - Pass Details

Date: 07 July 2022
Orbit: 839 x 860 km, 98.9° (Epoch: 15 August)

Event Time Altitude Azimuth Distance (km) Brightness Sun altitude
Exits shadow 19:43:31 - 151° (SSE) 2,891 7.3 -5.2°
Reaches altitude 10° 19:44:33 10° 150° (SSE) 2,486 7.0 -5.3°
Maximum altitude 19:50:01 66° 69° (ENE) 937 5.4 -5.8°
Drops below altitude 10° 19:55:33 10° 348° (NNW) 2,511 8.8 -6.4°
Sets 19:57:57 0° 346° (NNW) 3,453 9.7 -6.6°
